Regional Weather Roundup
Issued by NWS

Home | Current Version | Previous Version | Graphics & Text | Print | Product List | Glossary On
Versions: 1 2 3 4 5 6 7 8 9 10 11 12 13 14 15 16 17 18 19 20 21 22 23 24 25 26 27 28 29 30 31 32 33 34 35 36 37 38 39 40 41 42 43 44 45 46 47
000
ASUS45 KBOU 242207
RWRCO

WEATHER ROUNDUP FOR COLORADO
NATIONAL WEATHER SERVICE DENVER/BOULDER CO
300 PM MST WED DEC 24 2014

NOTE: "FAIR" INDICATES FEW OR NO CLOUDS BELOW 12000 FEET WITH NO
SIGNIFICANT WEATHER AND/OR OBSTRUCTIONS TO VISIBILITY.

COZ001>005-013-030-031-242300-
...NORTHWEST COLORADO...

CITY           SKY/WX    TMP DP  RH WIND       PRES   REMARKS
CRAIG          PTSUNNY   28  13  53 E7        29.89F WCI  21
HAYDEN         PTSUNNY   25   9  50 SE9       29.89F WCI  15
MEEKER         MOSUNNY   26  13  57 CALM      29.89F
MOUNT WERNER   NOT AVBL
STEAMBOAT SPGS PTSUNNY   24   9  53 CALM      29.89F
WALDEN         MOSUNNY   25  12  58 S18G28    29.81F WCI  11
$$

COZ006>008-011-242300-
...WEST CENTRAL VALLEYS...

CITY           SKY/WX    TMP DP  RH WIND       PRES   REMARKS
GRAND JUNCTION MOSUNNY   33  12  41 S5        29.97F WCI  29
MONTROSE       MOSUNNY   36  10  34 CALM      29.97F
EAGLE          MOSUNNY   30   9  40 CALM      29.98F
RIFLE          SUNNY     29  11  47 S7        29.98F WCI  22
DELTA          MOSUNNY   37  10  32 CALM      29.97F
NUCLA          MOSUNNY   36  10  35 NW3       30.00F
$$

COZ017>023-064>068-242300-
...SOUTHWEST COLORADO...

CITY           SKY/WX    TMP DP  RH WIND       PRES   REMARKS
DURANGO        SUNNY     35   5  28 VRB3      29.98F
CORTEZ         SUNNY     38  10  31 CALM      29.99F
PAGOSA SPRINGS SUNNY     32   1  26 CALM      29.97F
TELLURIDE      SUNNY     35  14  42 CALM      29.95F
WOLF CREEK PAS SUNNY     27   9  46 MISG      29.98F
$$

COZ009-010-012-014-032>034-037-058>063-242300-
...CENTRAL COLORADO...

CITY           SKY/WX    TMP DP  RH WIND       PRES   REMARKS
ASPEN          SUNNY     22   8  55 N6        29.90F WCI  14
BUENA VISTA    SUNNY     38  14  37 S6        29.82F
COPPER MTN     SUNNY     25  10  54 SW8       29.89F WCI  16
BERTHOUD PASS  FAIR      14   9  79 NW46G66   29.74F HAZE    WCI -10
COTTONWOOD PAS SUNNY     37   9  30 W18G29    29.84S
GUNNISON       SUNNY      9  -8  47 NE7       30.02F WCI  -3
KREMMLING      MOSUNNY   14   3  62 CALM      29.94F
LEADVILLE      MOSUNNY   31   8  38 NW9       29.85F WCI  23
MONARCH PASS   SUNNY     18  12  79 MISG      29.99F
SALIDA         SUNNY     38  10  31 SW16G30   29.89F
SUNLIGHT       SUNNY    N/A N/A N/A MISG      29.92F
WILKERSON PASS MOSUNNY   30  16  55 W6        29.87F WCI  24
$$

COZ069>075-242300-
...SAN LUIS VALLEY/SANGRE DE CRISTO MOUNTAINS...

CITY           SKY/WX    TMP DP  RH WIND       PRES   REMARKS
ALAMOSA        MOSUNNY   29   2  31 CALM      29.96F
LA VETA PASS   MOSUNNY   19   5  53 MISG      29.83F
SAGUACHE       SUNNY     21   9  58 CALM      29.97F
$$

COZ035-036-038>040-242300-
...NORTHERN COLORADO FRONT RANGE...

CITY           SKY/WX    TMP DP  RH WIND       PRES   REMARKS
DENVER INTL AP PTSUNNY   51  16  24 W12       29.64F
DMNS CITY PARK   N/A     51  16  25 SW6       29.64F
AURORA         PTSUNNY   51  17  26 S5        29.66F
FRONT RANGE AP NOT AVBL
ERIE MUNI ARPT   N/A     50  13  23 MISG      29.64F
BOULDER MUN AP CLOUDY    50  14  23 SE5       29.64F
CENTENNIAL     CLOUDY    48  23  37 E5        29.66F
BROOMFIELD     PTSUNNY   54   9  16 W20       29.66F
FORT COLLINS   CLOUDY    37  14  38 CALM      29.66F
LONGMONT       CLOUDY    43  14  30 CALM      29.65F
$$

COZ041-046-047-076>085-087-088-242300-
...PIKES PEAK/PALMER DIVIDE AND SOUTHERN FOOTHILLS...

CITY           SKY/WX    TMP DP  RH WIND       PRES   REMARKS
COLO. SPRINGS  PTSUNNY   39  11  31 S9        29.73F
A. F. ACADEMY  PTSUNNY   44  12  27 S7        29.71F
ELLICOTT       NOT AVBL
FALCON         MOSUNNY   42  13  30 S7        29.73F
FORT CARSON    MOSUNNY   37  15  41 S8        29.72F
LIMON          SUNNY     44  19  36 S10       29.71F
MONUMENT HILL  PTSUNNY   41  21  45 S9        29.70F
TRINIDAD       MOSUNNY   32  21  64 NW7       29.78R WCI  26
$$

COZ042>045-048>051-090-091-242300-
...NORTHEAST COLORADO...

CITY           SKY/WX    TMP DP  RH WIND       PRES   REMARKS
GREELEY ARPT   CLOUDY    43  16  33 NE5       29.64F
AKRON          SUNNY     41  22  46 S8        29.66F
BURLINGTON     MOSUNNY   40  18  41 SW16      29.73S
WRAY           SUNNY     47  24  41 S6        29.70F
STERLING       SUNNY     34  27  75 SW8       29.66F WCI  27
HOLYOKE        SUNNY     43  27  52 SW6       29.68F
FORT MORGAN    SUNNY     37  22  52 CALM      29.66F
$$

COZ086-089-092>099-242300-
...SOUTHEAST COLORADO...

CITY           SKY/WX    TMP DP  RH WIND       PRES   REMARKS
PUEBLO         PTSUNNY   42  15  33 SE8       29.73F
LA JUNTA       SUNNY     48  15  26 S8        29.75F
LAMAR          SUNNY     50   3  14 SW12      29.75F
SPRINGFIELD      N/A     46   5  18 S13G21    29.78S
$$



USA.gov is the U.S. government's official web portal to all federal, state and local government web resources and services.